Location: Ammareddip?lem
(16.9681°N, 80.4999°E)
Time: 07:35:08
(UTC+00:00)

Envisat - Pass Details

Date: 26 October 2021
Orbit: 764 x 766 km, 98.2° (Epoch: 30 November)

Event Time Altitude Azimuth Distance (km) Brightness Sun altitude
Rises 23:13:15 0° 17° (NNE) 3,222 6.4 -19.9°
Reaches altitude 10° 23:15:35 10° 21° (NNE) 2,295 5.6 -19.3°
Maximum altitude 23:20:34 60° 101° (E) 870 3.6 -18.1°
Drops below altitude 10° 23:25:32 10° 181° (S) 2,290 5.6 -17.0°
Sets 23:27:52 0° 185° (S) 3,215 6.3 -16.4°
